STARLINK-35234

Last updated on Tue Oct 14 2025 00:02:05 GMT+0000 (Coordinated Universal Time)

1 65601U 25207K 25286.58341435 .00119358 00000+0 30230-2 0 9996 2 65601 97.6042 350.0170 0000971 83.9528 191.7497 15.39263206 5983

Satellite not in orbit

STARLINK-35234